Location: Newark
(43.4306°N, 0.3089°E)
Time: 15:29:30
(UTC+00:00)

A-11 Canister half - Pass Details

Date: 31 August 2019
Orbit: 1514 x 1686 km, 47.2° (Epoch: 15 September)

Event Time Altitude Azimuth Distance (km) Brightness Sun altitude
Rises 20:48:12 0° 293° (WNW) 4,729 12.9 -22.4°
Reaches altitude 10° 20:51:13 10° 292° (WNW) 3,765 12.1 -22.9°
Maximum altitude 21:00:47 76° 209° (SSW) 1,653 9.0 -24.2°
Enters shadow 21:04:56 40° 133° (SE) 2,236 9.3 -24.8°
